Regional Weather Roundup
Issued by NWS

Home | Current Version | Previous Version | Graphics & Text | Print | Product List | Glossary On
Versions: 1 2 3 4 5 6 7 8 9 10 11 12 13 14 15 16 17 18 19 20 21 22 23 24 25 26 27 28 29 30 31 32 33 34 35 36 37 38 39 40 41 42 43 44 45 46 47 48 49 50
000
ASUS43 KOAX 200302
RWRNE

WEATHER ROUNDUP FOR NEBRASKA
NATIONAL WEATHER SERVICE OMAHA NE
900 PM CST FRI DEC 19 2014

NOTES: SATELLITE DATA IS BEING USED TO AUGMENT CLOUD COVER ABOVE
       12000 FEET.
       "FAIR" INDICATES FEW OR NO CLOUDS BELOW 12,000 FEET WITH NO
       SIGNIFICANT WEATHER AND/OR OBSTRUCTIONS TO VISIBILITY.

  * THESE STATIONS DO NOT REPORT WEATHER SUCH AS RAIN...SNOW OR FOG.

NEZ001>004-019>022-054>056-200400-
NEBRASKA PANHANDLE

CITY           SKY/WX    TMP DP  RH WIND       PRES   REMARKS
SCOTTSBLUFF    PTCLDY    26  20  77 CALM      30.00S
ALLIANCE       PTCLDY    19  16  88 W7        29.98F WCI  10
CHADRON        CLEAR     21  16  81 S5        29.97S WCI  15
SIDNEY         PTCLDY    25  18  74 W9        30.02S WCI  15
$$

NEZ057>060-069>072-079>082-200400-
SOUTHWEST NEBRASKA

CITY           SKY/WX    TMP DP  RH WIND       PRES   REMARKS
NORTH PLATTE   CLEAR     23  20  88 NW3       30.02R
IMPERIAL       CLEAR     31  24  75 W10       30.03S WCI  22
LEXINGTON      CLEAR     23  22  96 N3        30.02F FOG
MCCOOK         CLEAR     33  24  69 VRB5      30.03S WCI  29
$$

NEZ005>010-023>029-035>040-094-200400-
NORTH CENTRAL NEBRASKA

CITY           SKY/WX    TMP DP  RH WIND       PRES   REMARKS
VALENTINE      CLEAR     22  19  89 W5        29.99R WCI  16
BROKEN BOW     FOG       22  20  92 CALM      30.00S VSB 1/4
$$

NEZ041-046>049-061>064-073>077-083>087-200400-
SOUTH CENTRAL NEBRASKA

CITY           SKY/WX    TMP DP  RH WIND       PRES   REMARKS
GRAND ISLAND   FOG       33  32  96 S12       30.06S VSB 1/2 WCI  24
HASTINGS       FOG       33  32  96 S8        30.04F VSB 1/4 WCI  26
KEARNEY *      CLOUDY    23  21  93 SE3       30.03F VSB 1/4
$$

NEZ011>018-030>034-042>045-200400-
NORTHEAST NEBRASKA

CITY           SKY/WX    TMP DP  RH WIND       PRES   REMARKS
NORFOLK        CLOUDY    34  30  85 S9        30.06S WCI  27
COLUMBUS *     CLOUDY    34  27  75 S7        30.09S WCI  28
TEKAMAH        CLOUDY    32  29  88 SE13      30.13F WCI  22
$$

NEZ050>053-065>068-078-088>093-200400-
SOUTHEAST NEBRASKA

CITY           SKY/WX    TMP DP  RH WIND       PRES   REMARKS
LINCOLN        CLOUDY    34  30  85 S10       30.13F WCI  26
OMAHA EPPLEY   DRIZZLE   32  29  88 S9        30.16F FOG     WCI  24
FALLS CITY     CLOUDY    30  27  88 SE8       30.18F WCI  22
$$

NEZ044-045-051>053-067-200400-
OMAHA AREA

CITY           SKY/WX    TMP DP  RH WIND       PRES   REMARKS
OMAHA EPPLEY   DRIZZLE   32  29  88 S9        30.16F FOG     WCI  24
OFFUTT AFB     CLOUDY    31  29  94 SE9       30.15S WCI  23
$$


USA.gov is the U.S. government's official web portal to all federal, state and local government web resources and services.